Flag for Marshall Islands Weather past 2 weeks in Majuro, Marshall Islands

Now
81 °F

Light rain. Mostly cloudy.


Feels Like: 87 °F
Forecast: 79 / 85 °F
Wind: No wind

Location: Majuro Atoll

Current Time: Sep 30, 2014 at 11:27:52 PM

Latest Report: Sep 30, 2014 at 10:52 PM


Visibility: 14 mi

Pressure: 29.79 "Hg

Humidity: 85%

Dew point: 76 °F

Location of MajuroLocation

Historic Weather in Majuro — Graph

°F

Majuro temperature yesterday

Maximum temperature yesterday: 88 °F (at 1:53 PM)
Minimum temperature yesterday: 81 °F (at 12:54 AM)
Average temperature yesterday: 84 °F

Past Weeks' High & Low Weather Summary

 TemperatureHumidityPressure
High89 °F (Sep 25, 11:55 AM)95% (Sep 17, 4:52 AM)29.90 "Hg (Sep 17, 4:52 AM)
Low76 °F (Sep 22, 12:54 AM)69% (Sep 18, 11:54 AM)29.70 "Hg (Sep 29, 3:50 PM)
Average83 °F81%29.80 "Hg
* Reported Sep 15 9:53 PM — Sep 30 9:53 PM, Majuro, Weather by CustomWeather, © 2014

Note: Actual official high and low records may vary slightly from our data, if they occured in-between our weather recording intervals... More about our weather records

Advertising

Majuro weather history for previous 24 hours

 ConditionsComfort  
Time TempWeatherWind HumidityBarometerVisibility
9:53 PM
Sep 30
83 °FOvercast.No wind86%29.78 "Hg15 mi
8:53 PM83 °FOvercast.No wind83%29.78 "Hg15 mi
7:50 PM83 °FOvercast.5 mph83%29.77 "Hg15 mi
6:58 PM84 °FCloudy.No wind79%29.75 "Hg15 mi
5:55 PM85 °FCloudy.3 mph77%29.73 "Hg15 mi
4:52 PM87 °FMore clouds than sun.5 mph74%29.70 "Hg15 mi
2:53 PM87 °FMore clouds than sun.7 mph75%29.70 "Hg15 mi
1:51 PM87 °FMore clouds than sun.7 mph75%29.72 "Hg15 mi
12:53 PM87 °FMore clouds than sun.8 mph75%29.74 "Hg15 mi
11:54 AM87 °FMore clouds than sun.5 mph74%29.78 "Hg15 mi
10:51 AM88 °FBroken clouds.7 mph74%29.80 "Hg15 mi
9:51 AM87 °FBroken clouds.6 mph75%29.80 "Hg15 mi
8:53 AM84 °FCloudy.3 mph84%29.80 "Hg15 mi
7:51 AM82 °FMore clouds than sun.7 mph85%29.79 "Hg15 mi
6:50 AM81 °FMostly cloudy.6 mph87%29.76 "Hg15 mi
5:50 AM80 °FMostly cloudy.No wind89%29.75 "Hg15 mi
4:55 AM80 °FOvercast.No wind91%29.74 "Hg15 mi
3:54 AM80 °FSprinkles. Overcast.10 mph91%29.75 "Hg10 mi
2:52 AM80 °FPartly cloudy.No wind87%29.74 "Hg15 mi
1:52 AM82 °FPassing clouds.No wind81%29.75 "Hg15 mi
12:54 AM83 °FPartly cloudy.No wind80%29.77 "Hg15 mi
11:50 PM
Sep 29
83 °FPassing clouds.5 mph78%29.78 "Hg15 mi
Weather by CustomWeather, © 2014

See weather overviewHow to use our weather pages